Location: Basin
(44.3800°N, 108.0380°W)
Time: 00:56:30
(UTC-06:00)

Envisat - Visible Passes

Search period start: 18 September 2020 00:00
Search period end: 28 September 2020 00:00
Orbit: 764 x 766 km, 98.1° (Epoch: 18 September)

Date Brightness Start Highest point End Pass type
(mag) Time Alt. Az. Time Alt. Az. Time Alt. Az.
18 Sep 6.2 19:49:02 10° SW 19:52:03 16° W 19:55:04 10° NW visible
19 Sep 5.9 06:15:35 10° NE 06:19:22 21° E 06:23:06 10° SE visible
21 Sep 6.0 19:36:55 10° SW 19:40:34 20° W 19:44:15 10° NW visible
22 Sep 6.1 06:04:43 10° NE 06:07:52 16° E 06:11:01 10° SE visible
23 Sep 6.6 20:04:53 10° WSW 20:06:20 11° W 20:07:48 10° WNW visible
24 Sep 5.5 06:29:13 10° NE 06:33:34 28° E 06:37:53 10° SSE visible
24 Sep 5.8 19:24:59 10° SSW 19:29:06 25° W 19:33:14 10° NW visible
25 Sep 6.4 05:54:07 10° ENE 05:56:22 13° E 05:58:37 10° ESE visible
26 Sep 6.3 19:52:06 10° WSW 19:54:49 14° W 19:57:32 10° NW visible
27 Sep 5.9 06:18:10 10° NE 06:22:07 22° E 06:26:02 10° SE visible
